User: anonymous   Login
Location: Unspecified
(0.0000°N, 0.0000°E)
Time: 20:59:59
(UTC+00:00)
Language:

NAVSTAR 64 (USA 206) - Orbit

View from above orbital plane
View from above orbital plane
View from above satellite
View from above satellite

Ground track
Ground track

The orbit data is extracted from the following two-line orbital elements,

1 35752U 09043A   18173.10875417  .00000047  00000-0  00000+0 0  9991
2 35752  54.3227 144.5118 0052975  33.4911 106.3211  2.00556969 64837
Epoch (UTC): 22 June 2018 02:36:36
Eccentricity: 0.0052975
inclination: 54.3227°
perigee height: 20042 km
apogee height: 20323 km
right ascension of ascending node: 144.5118°
argument of perigee: 33.4911°
revolutions per day: 2.00556969
mean anomaly at epoch: 106.3211°
orbit number at epoch: 6483

The dashed part of the orbit path shows where the satellite is in the earth's shadow,  

DLR